K5RNB Weather Reports


Display with metric or nautical units.
time (UTC)temp
F
wind
direction
speed
MPH
gust
MPH
rain 1hr
in
rain 24hr
in
rain mn
in
humidity
%
barometer
mb
20260906030406 88 166 6.0 12.0 0.00 0.00 0.00 62 1010.6
20260906025906 89 163 6.0 9.0 0.00 0.00 0.00 60 1010.5
20260906025406 89 154 6.0 10.0 0.00 0.00 0.00 59 1010.5
20260906024906 89 144 5.0 13.0 0.00 0.00 0.00 59 1010.4
20260906024406 89 147 7.0 13.0 0.00 0.00 0.00 59 1010.4
20260906023906 89 149 7.0 12.0 0.00 0.00 0.00 59 1010.2
20260906023407 89 147 7.0 12.0 0.00 0.00 0.00 58 1010.2
20260906022906 89 152 6.0 10.0 0.00 0.00 0.00 58 1010.0
20260906022406 89 152 5.0 7.0 0.00 0.00 0.00 56 1009.9
20260906021906 89 147 5.0 7.0 0.00 0.00 0.00 55 1009.8
20260906021406 89 133 5.0 7.0 0.00 0.00 0.00 54 1009.7
20260906020906 89 139 3.0 6.0 0.00 0.00 0.00 54 1009.6
20260906020407 90 151 2.0 3.0 0.00 0.00 0.00 53 1009.6
20260906015906 90 145 0.0 1.0 0.00 0.00 0.00 53 1009.5
20260906015406 90 145 0.0 1.0 0.00 0.00 0.00 53 1009.5
20260906014907 91 145 0.0 1.0 0.00 0.00 0.00 54 1009.4
20260906014406 91 145 0.0 1.0 0.00 0.00 0.00 54 1009.3
20260906013907 92 145 0.0 1.0 0.00 0.00 0.00 52 1009.3
20260906013406 92 145 0.0 1.0 0.00 0.00 0.00 51 1009.1
20260906012906 92 145 0.0 1.0 0.00 0.00 0.00 51 1009.1
20260906012406 93 145 0.0 2.0 0.00 0.00 0.00 51 1009.0
20260906011906 93 145 0.0 2.0 0.00 0.00 0.00 49 1009.0
20260906011406 93 145 1.0 3.0 0.00 0.00 0.00 48 1009.0
20260906010907 93 97 0.0 3.0 0.00 0.00 0.00 48 1008.9
20260906010406 94 139 2.0 3.0 0.00 0.00 0.00 48 1008.8
20260906005906 94 124 2.0 3.0 0.00 0.00 0.00 47 1008.8
20260906005409 95 138 2.0 3.0 0.00 0.00 0.00 46 1008.8
20260906004907 95 137 1.0 6.0 0.00 0.00 0.00 45 1008.8
20260906004406 96 113 3.0 6.0 0.00 0.00 0.00 44 1008.8
20260906003906 96 115 3.0 6.0 0.00 0.00 0.00 44 1008.8
20260906003406 96 140 3.0 7.0 0.00 0.00 0.00 44 1008.8
20260906002907 96 119 3.0 7.0 0.00 0.00 0.00 44 1008.7
20260906002407 96 147 4.0 7.0 0.00 0.00 0.00 44 1008.7
20260906001406 96 172 3.0 7.0 0.00 0.00 0.00 43 1008.7
20260906000907 97 163 5.0 9.0 0.00 0.00 0.00 43 1008.7
20260906000407 97 153 6.0 9.0 0.00 0.00 0.00 43 1008.7
20260905235407 98 185 4.0 6.0 0.00 0.00 0.00 42 1008.6
20260905234406 98 166 3.0 9.0 0.00 0.00 0.00 43 1008.5
20260905233908 98 145 3.0 9.0 0.00 0.00 0.00 43 1008.5
20260905233407 98 182 6.0 9.0 0.00 0.00 0.00 43 1008.5
20260905232907 98 175 3.0 14.0 0.00 0.00 0.00 43 1008.5
20260905232407 98 177 8.0 14.0 0.00 0.00 0.00 42 1008.6
20260905231907 98 161 7.0 13.0 0.00 0.00 0.00 43 1008.5
20260905231407 98 196 9.0 13.0 0.00 0.00 0.00 43 1008.6
20260905230407 98 182 9.0 14.0 0.00 0.00 0.00 42 1008.6
20260905225907 98 147 2.0 9.0 0.00 0.00 0.00 42 1008.6
20260905225407 98 164 6.0 10.0 0.00 0.00 0.00 42 1008.5
20260905224907 98 174 6.0 12.0 0.00 0.00 0.00 43 1008.6
20260905224407 98 186 9.0 12.0 0.00 0.00 0.00 43 1008.5
20260905223907 98 217 8.0 12.0 0.00 0.00 0.00 43 1008.5
20260905223407 98 197 7.0 15.0 0.00 0.00 0.00 43 1008.5
20260905222407 98 198 7.0 15.0 0.00 0.00 0.00 43 1008.5
20260905221908 98 184 10.0 15.0 0.00 0.00 0.00 42 1008.5
20260905221408 99 171 7.0 12.0 0.00 0.00 0.00 42 1008.5
20260905220909 99 206 5.0 12.0 0.00 0.00 0.00 42 1008.6
20260905220407 99 220 6.0 13.0 0.00 0.00 0.00 43 1008.7
20260905215407 99 166 6.0 12.0 0.00 0.00 0.00 42 1008.7
20260905214907 98 93 3.0 14.0 0.00 0.00 0.00 42 1008.8
20260905214408 98 146 6.0 14.0 0.00 0.00 0.00 42 1008.8
20260905213908 98 137 5.0 14.0 0.00 0.00 0.00 42 1008.9
20260905213407 98 195 6.0 15.0 0.00 0.00 0.00 43 1008.9
20260905212907 98 202 8.0 15.0 0.00 0.00 0.00 42 1008.9
20260905211407 98 150 5.0 16.0 0.00 0.00 0.00 43 1009.1
20260905210408 99 209 7.0 12.0 0.00 0.00 0.00 42 1009.2
20260905205408 98 229 7.0 13.0 0.00 0.00 0.00 43 1009.4
20260905204910 98 199 8.0 13.0 0.00 0.00 0.00 43 1009.6
20260905203908 98 160 7.0 13.0 0.00 0.00 0.00 43 1009.6
20260905203407 99 161 5.0 15.0 0.00 0.00 0.00 43 1009.7
20260905202908 99 217 9.0 15.0 0.00 0.00 0.00 43 1009.7
20260905201908 98 175 4.0 9.0 0.00 0.00 0.00 44 1010.0
20260905201408 98 218 5.0 12.0 0.00 0.00 0.00 44 1010.1
20260905200908 98 156 7.0 15.0 0.00 0.00 0.00 45 1010.2
20260905200408 97 260 7.0 15.0 0.00 0.00 0.00 44 1010.2
20260905195908 97 236 5.0 12.0 0.00 0.00 0.00 44 1010.4
20260905195408 97 204 6.0 13.0 0.00 0.00 0.00 44 1010.4
20260905194908 97 178 7.0 13.0 0.00 0.00 0.00 43 1010.5
20260905194408 97 151 6.0 16.0 0.00 0.00 0.00 46 1010.5
20260905192908 96 207 5.0 16.0 0.00 0.00 0.00 46 1010.8
20260905192408 96 206 1.0 14.0 0.00 0.00 0.00 47 1010.8
20260905191909 96 199 5.0 16.0 0.00 0.00 0.00 47 1010.9
20260905191408 96 171 10.0 16.0 0.00 0.00 0.00 46 1011.1
20260905190408 96 186 9.0 17.0 0.00 0.00 0.00 46 1011.4
20260905185909 96 187 8.0 14.0 0.00 0.00 0.00 46 1011.4
20260905185409 96 145 8.0 14.0 0.00 0.00 0.00 46 1011.5
20260905184909 96 187 7.0 14.0 0.00 0.00 0.00 46 1011.5
20260905183409 95 118 9.0 15.0 0.00 0.00 0.00 47 1011.6
20260905182908 95 202 9.0 15.0 0.00 0.00 0.00 47 1011.7
20260905182408 95 156 6.0 15.0 0.00 0.00 0.00 47 1011.7
20260905181909 95 201 9.0 17.0 0.00 0.00 0.00 48 1011.8
20260905181409 95 194 8.0 17.0 0.00 0.00 0.00 48 1011.8
20260905180409 95 110 7.0 13.0 0.00 0.00 0.00 48 1012.1
20260905175909 95 174 7.0 14.0 0.00 0.00 0.00 49 1012.1
20260905175408 95 191 5.0 14.0 0.00 0.00 0.00 48 1012.2
20260905174909 95 172 6.0 14.0 0.00 0.00 0.00 49 1012.2